NOAA 16 DEB, 41153

Orbit data source: Space-Track

NOAA 16 DEB, 41153 is space debris in SSO originally from a launch on Thu, 21 Sep 2000 UTC launched from the Air Force Western Test Range (AFWTR). Debris objects in space refer to the collection of defunct objects orbiting the Earth. Examples of debris include non-operational satellites, rocket bodies, and fragments generated from explosions, collisions, or faulty payload assembly.

Loading next visibility...
NOAA 16 DEB details
Identifier
41153, 2000-055CL
Orbit
SSO
Last TLE update2 days ago
Origin
Flag of USNOAA (US)
ManufacturerUnknown
MissionSpacecraft
Bus & MotorUnknown
MassUnknown
Launch date (UTC)
2000-09-21 (24 years ago)
Launch vehicleUnknown
Launch site
Air Force Western Test Range (AFWTR)
Object type
Payload
Rocket body
Debris
Shape & HBRUnknown
Radar Cross SectionSmall (<0.1 m²)

Expand to show TLE details & history

TLE from 2 days ago
0 NOAA 16 DEB
1 41153U 00055CL  24337.99821221  .00011326  00000-0  43983-2 0  9999
2 41153  98.7797  73.7558 0017025 354.7439   5.3562 14.29953126466243
Epoch: 2024-12-02T23:57Z
Definitive object data (Epoch: 2024-12-02T23:57:25.534Z)
Latitude0.00001°
Longitude2.08538°
Altitude782.657 km
Speed7.469 km/s
True Right ascension04h 55m 01s
True Declination0° 00' 00"
Sunlit
Object was in full shadow at TLE epoch
Visualization TLE readout
Latitude7.06559°
Longitude-174.67336°
Altitude806.185 km
Speed7.444 km/s
Apparent Right ascension15h 31m 34s
Apparent Declination-16° 59' 26"
Sunlit
Object is in daylight
Visualization observer readout
Local Sidereal Time01:05:41
Azimuth295.353° NW
Elevation-51.02°
Doppler factor1
Orbital elements
Apogee altitude801.238 km
Perigee altitude776.834 km
Semi-major axis7,167.173 km
Eccentricity0.0017025
Inclination98.7797°
RAAN73.7558°
Arg. of periapsis354.7439°
True anomaly5.37445°
Mean anomaly5.3562°
Eccentric anomaly5.36532°
Mean motion3.57702 °/min
BSTAR0.0043983
Orbital period100.64 mins
Loading maneuver chart data...
Loading historical data...
Loading historical data...
Loading historical data...
Loading historical data...
Loading historical data...
Loading historical data...
Loading historical data...

NOAA 16 DEB Visibility forecast

Observer location: undefined°, undefined

Span
Click to sort rows by Start time (UTC) header in descending order
Start Az.
Max El. time (UTC)
Max El. Az.
Max El.
End time (UTC)
End Az.
8 mins2024-12-05 05:49:30.086Z130.7° SE2024-12-05 05:53:30.086Z72.494° E30.202°2024-12-05 05:57:30.086Z8.375° NNE
6 mins2024-12-05 07:30:30.086Z221.729° SW2024-12-05 07:33:30.086Z270.838° WNW23.771°2024-12-05 07:36:30.086Z313.649° NW
9 mins2024-12-05 19:42:30.086Z7.971° NNE2024-12-05 19:46:30.086Z293.621° NW43.685°2024-12-05 19:51:30.086Z202.908° SW
|